| time (UTC) | temp F | wind direction | speed MPH | gust MPH | rain 1hr in | rain 24hr in | rain mn in | humidity % | barometer mb |
| 20260504060138 | 58 | 202 | 5.0 | 18.0 | 0.00 | 0.00 | 0.00 | 45 | 994.6 |
| 20260504050606 | 59 | 195 | 8.0 | 15.0 | 0.00 | 0.00 | 0.00 | 43 | 995.9 |
| 20260504050103 | 58 | 206 | 6.0 | 10.0 | 0.00 | 0.00 | 0.00 | 44 | 996.2 |
| 20260504045600 | 58 | 190 | 4.0 | 9.0 | 0.00 | 0.00 | 0.00 | 44 | 996.0 |
| 20260504045054 | 59 | 227 | 7.0 | 11.0 | 0.00 | 0.00 | 0.00 | 44 | 996.4 |
| 20260504044553 | 59 | 238 | 7.0 | 11.0 | 0.00 | 0.00 | 0.00 | 44 | 996.6 |
| 20260504044049 | 59 | 203 | 2.0 | 10.0 | 0.00 | 0.00 | 0.00 | 43 | 996.7 |
| 20260504043547 | 59 | 200 | 4.0 | 9.0 | 0.00 | 0.00 | 0.00 | 43 | 996.9 |
| 20260504043044 | 59 | 186 | 9.0 | 11.0 | 0.00 | 0.00 | 0.00 | 42 | 996.9 |
| 20260504042541 | 60 | 157 | 9.0 | 14.0 | 0.00 | 0.00 | 0.00 | 42 | 996.9 |
| 20260504042038 | 60 | 173 | 11.0 | 13.0 | 0.00 | 0.00 | 0.00 | 42 | 997.1 |
| 20260504041533 | 60 | 206 | 2.0 | 6.0 | 0.00 | 0.00 | 0.00 | 42 | 997.2 |
| 20260504041030 | 60 | 219 | 7.0 | 11.0 | 0.00 | 0.00 | 0.00 | 42 | 997.4 |
| 20260504040527 | 60 | 185 | 7.0 | 9.0 | 0.00 | 0.00 | 0.00 | 42 | 997.5 |
| 20260504040024 | 60 | 159 | 3.0 | 9.0 | 0.00 | 0.00 | 0.00 | 41 | 997.4 |
| 20260504035521 | 60 | 161 | 3.0 | 8.0 | 0.00 | 0.00 | 0.00 | 41 | 997.6 |
| 20260504035017 | 60 | 241 | 6.0 | 11.0 | 0.00 | 0.00 | 0.00 | 41 | 997.6 |
| 20260504034515 | 60 | 203 | 2.0 | 10.0 | 0.00 | 0.00 | 0.00 | 41 | 997.8 |
| 20260504034012 | 60 | 196 | 8.0 | 10.0 | 0.00 | 0.00 | 0.00 | 41 | 997.8 |
| 20260504033509 | 60 | 207 | 6.0 | 11.0 | 0.00 | 0.00 | 0.00 | 42 | 998.1 |
| 20260504033007 | 60 | 191 | 8.0 | 9.0 | 0.00 | 0.00 | 0.00 | 42 | 998.1 |
| 20260504032503 | 60 | 188 | 3.0 | 10.0 | 0.00 | 0.00 | 0.00 | 41 | 998.3 |
| 20260504032000 | 60 | 189 | 10.0 | 10.0 | 0.00 | 0.00 | 0.00 | 41 | 998.5 |
| 20260504031457 | 60 | 169 | 2.0 | 8.0 | 0.00 | 0.00 | 0.00 | 41 | 998.6 |
| 20260504030953 | 60 | 200 | 4.0 | 8.0 | 0.00 | 0.00 | 0.00 | 42 | 998.6 |
| 20260504030451 | 60 | 180 | 5.0 | 6.0 | 0.00 | 0.00 | 0.00 | 41 | 999.1 |
| 20260504025946 | 61 | 164 | 2.0 | 6.0 | 0.00 | 0.00 | 0.00 | 40 | 998.7 |
| 20260504025444 | 61 | 231 | 3.0 | 11.0 | 0.00 | 0.00 | 0.00 | 41 | 998.8 |
| 20260504024941 | 61 | 195 | 4.0 | 8.0 | 0.00 | 0.00 | 0.00 | 41 | 998.9 |
| 20260504024438 | 61 | 188 | 9.0 | 9.0 | 0.00 | 0.00 | 0.00 | 40 | 999.1 |
| 20260504023935 | 61 | 162 | 4.0 | 6.0 | 0.00 | 0.00 | 0.00 | 41 | 999.2 |
| 20260504023431 | 61 | 175 | 2.0 | 7.0 | 0.00 | 0.00 | 0.00 | 40 | 999.2 |
| 20260504022927 | 61 | 201 | 3.0 | 8.0 | 0.00 | 0.00 | 0.00 | 40 | 999.3 |
| 20260504022423 | 61 | 206 | 4.0 | 10.0 | 0.00 | 0.00 | 0.00 | 40 | 999.4 |
| 20260504021920 | 62 | 177 | 6.0 | 10.0 | 0.00 | 0.00 | 0.00 | 39 | 999.5 |
| 20260504021417 | 62 | 183 | 2.0 | 9.0 | 0.00 | 0.00 | 0.00 | 40 | 999.5 |
| 20260504020915 | 62 | 176 | 2.0 | 8.0 | 0.00 | 0.00 | 0.00 | 38 | 999.7 |
| 20260504020411 | 62 | 152 | 4.0 | 5.0 | 0.00 | 0.00 | 0.00 | 39 | 999.7 |
| 20260504015908 | 62 | 201 | 3.0 | 9.0 | 0.00 | 0.00 | 0.00 | 38 | 1000.0 |
| 20260504015403 | 62 | 180 | 2.0 | 7.0 | 0.00 | 0.00 | 0.00 | 38 | 999.9 |
| 20260504014854 | 63 | 198 | 4.0 | 8.0 | 0.00 | 0.00 | 0.00 | 38 | 1000.1 |
| 20260504014350 | 63 | 189 | 4.0 | 6.0 | 0.00 | 0.00 | 0.00 | 36 | 1000.2 |
| 20260504013847 | 64 | 223 | 2.0 | 6.0 | 0.00 | 0.00 | 0.00 | 35 | 1000.1 |
| 20260504013345 | 64 | 216 | 4.0 | 6.0 | 0.00 | 0.00 | 0.00 | 34 | 1000.2 |
| 20260504012842 | 65 | 211 | 4.0 | 9.0 | 0.00 | 0.00 | 0.00 | 33 | 1000.4 |
| 20260504012339 | 66 | 217 | 6.0 | 12.0 | 0.00 | 0.00 | 0.00 | 32 | 1000.7 |
| 20260504011837 | 66 | 221 | 9.0 | 10.0 | 0.00 | 0.00 | 0.00 | 32 | 1000.7 |
| 20260504011333 | 66 | 240 | 9.0 | 14.0 | 0.00 | 0.00 | 0.00 | 31 | 1000.6 |
| 20260504010829 | 66 | 230 | 7.0 | 10.0 | 0.00 | 0.00 | 0.00 | 31 | 1000.8 |
| 20260504010325 | 67 | 238 | 6.0 | 13.0 | 0.00 | 0.00 | 0.00 | 31 | 1000.8 |
| 20260504005822 | 68 | 233 | 10.0 | 14.0 | 0.00 | 0.00 | 0.00 | 30 | 1000.9 |
| 20260504005319 | 68 | 223 | 14.0 | 18.0 | 0.00 | 0.00 | 0.00 | 29 | 1001.1 |
| 20260504004816 | 68 | 236 | 10.0 | 14.0 | 0.00 | 0.00 | 0.00 | 29 | 1001.2 |
| 20260504004314 | 69 | 253 | 11.0 | 16.0 | 0.00 | 0.00 | 0.00 | 29 | 1001.3 |
| 20260504003810 | 69 | 258 | 11.0 | 16.0 | 0.00 | 0.00 | 0.00 | 28 | 1001.4 |
| 20260504003307 | 70 | 247 | 17.0 | 19.0 | 0.00 | 0.00 | 0.00 | 28 | 1001.3 |
| 20260504002803 | 70 | 246 | 13.0 | 17.0 | 0.00 | 0.00 | 0.00 | 28 | 1001.4 |
| 20260504002300 | 70 | 250 | 11.0 | 15.0 | 0.00 | 0.00 | 0.00 | 29 | 1001.5 |
| 20260504001758 | 70 | 266 | 14.0 | 23.0 | 0.00 | 0.00 | 0.00 | 29 | 1001.5 |
| 20260504001255 | 70 | 252 | 10.0 | 15.0 | 0.00 | 0.00 | 0.00 | 28 | 1001.5 |
| 20260504000752 | 70 | 229 | 11.0 | 20.0 | 0.00 | 0.00 | 0.00 | 29 | 1001.8 |
| 20260504000249 | 70 | 243 | 8.0 | 15.0 | 0.00 | 0.00 | 0.00 | 30 | 1001.6 |
| 20260503235747 | 70 | 243 | 9.0 | 17.0 | 0.00 | 0.00 | 0.00 | 29 | 1002.0 |
| 20260503235244 | 70 | 304 | 8.0 | 25.0 | 0.00 | 0.00 | 0.00 | 28 | 1002.1 |
| 20260503234741 | 70 | 268 | 10.0 | 18.0 | 0.00 | 0.00 | 0.00 | 28 | 1002.0 |
| 20260503234239 | 71 | 271 | 7.0 | 11.0 | 0.00 | 0.00 | 0.00 | 29 | 1002.2 |
| 20260503233736 | 71 | 245 | 16.0 | 24.0 | 0.00 | 0.00 | 0.00 | 28 | 1002.0 |
| 20260503233231 | 71 | 262 | 15.0 | 24.0 | 0.00 | 0.00 | 0.00 | 28 | 1002.3 |
| 20260503232728 | 70 | 263 | 14.0 | 15.0 | 0.00 | 0.00 | 0.00 | 29 | 1002.3 |
| 20260503232225 | 71 | 243 | 8.0 | 17.0 | 0.00 | 0.00 | 0.00 | 30 | 1002.5 |
| 20260503231724 | 71 | 265 | 18.0 | 19.0 | 0.00 | 0.00 | 0.00 | 29 | 1002.4 |
| 20260503231220 | 71 | 256 | 12.0 | 15.0 | 0.00 | 0.00 | 0.00 | 29 | 1002.5 |
| 20260503230716 | 71 | 271 | 9.0 | 16.0 | 0.00 | 0.00 | 0.00 | 30 | 1002.8 |
| 20260503230214 | 71 | 244 | 9.0 | 16.0 | 0.00 | 0.00 | 0.00 | 30 | 1002.6 |
| 20260503225711 | 71 | 219 | 10.0 | 14.0 | 0.00 | 0.00 | 0.00 | 31 | 1003.0 |
| 20260503225206 | 71 | 264 | 9.0 | 15.0 | 0.00 | 0.00 | 0.00 | 30 | 1003.1 |
| 20260503224704 | 70 | 248 | 11.0 | 19.0 | 0.00 | 0.00 | 0.00 | 31 | 1003.2 |
| 20260503224201 | 70 | 264 | 8.0 | 15.0 | 0.00 | 0.00 | 0.00 | 31 | 1003.1 |
| 20260503223659 | 70 | 286 | 5.0 | 11.0 | 0.00 | 0.00 | 0.00 | 30 | 1003.1 |
| 20260503223155 | 70 | 288 | 10.0 | 18.0 | 0.00 | 0.00 | 0.00 | 30 | 1003.1 |
| 20260503222652 | 70 | 263 | 8.0 | 16.0 | 0.00 | 0.00 | 0.00 | 29 | 1003.3 |
| 20260503222150 | 70 | 266 | 6.0 | 17.0 | 0.00 | 0.00 | 0.00 | 30 | 1003.2 |
| 20260503221648 | 71 | 262 | 5.0 | 8.0 | 0.00 | 0.00 | 0.00 | 30 | 1003.3 |
| 20260503221144 | 70 | 265 | 8.0 | 11.0 | 0.00 | 0.00 | 0.00 | 30 | 1003.4 |
| 20260503220636 | 69 | 295 | 13.0 | 16.0 | 0.00 | 0.00 | 0.00 | 31 | 1003.6 |
| 20260503220132 | 69 | 298 | 10.0 | 12.0 | 0.00 | 0.00 | 0.00 | 31 | 1003.5 |
| 20260503215624 | 69 | 260 | 11.0 | 16.0 | 0.00 | 0.00 | 0.00 | 30 | 1003.7 |
| 20260503215120 | 70 | 275 | 12.0 | 15.0 | 0.00 | 0.00 | 0.00 | 29 | 1003.8 |
| 20260503214619 | 70 | 252 | 7.0 | 16.0 | 0.00 | 0.00 | 0.00 | 30 | 1003.8 |
| 20260503214114 | 69 | 259 | 15.0 | 18.0 | 0.00 | 0.00 | 0.00 | 30 | 1003.8 |
| 20260503213609 | 69 | 250 | 11.0 | 19.0 | 0.00 | 0.00 | 0.00 | 30 | 1003.9 |
| 20260503213104 | 69 | 256 | 10.0 | 16.0 | 0.00 | 0.00 | 0.00 | 29 | 1003.9 |
| 20260503212602 | 70 | 267 | 11.0 | 12.0 | 0.00 | 0.00 | 0.00 | 28 | 1003.9 |
| 20260503212059 | 69 | 253 | 10.0 | 11.0 | 0.00 | 0.00 | 0.00 | 29 | 1004.1 |
| 20260503211556 | 69 | 266 | 11.0 | 17.0 | 0.00 | 0.00 | 0.00 | 29 | 1004.2 |
| 20260503211052 | 70 | 269 | 8.0 | 8.0 | 0.00 | 0.00 | 0.00 | 27 | 1004.4 |
| 20260503210549 | 69 | 322 | 3.0 | 15.0 | 0.00 | 0.00 | 0.00 | 30 | 1004.5 |
| 20260503210044 | 69 | 260 | 17.0 | 18.0 | 0.00 | 0.00 | 0.00 | 28 | 1004.5 |
| 20260503205541 | 69 | 308 | 3.0 | 13.0 | 0.00 | 0.00 | 0.00 | 29 | 1004.9 |
| 20260503205038 | 69 | 316 | 5.0 | 18.0 | 0.00 | 0.00 | 0.00 | 29 | 1005.0 |
| 20260503204535 | 68 | 266 | 5.0 | 15.0 | 0.00 | 0.00 | 0.00 | 31 | 1005.3 |
| 20260503204032 | 68 | 264 | 8.0 | 13.0 | 0.00 | 0.00 | 0.00 | 28 | 1005.4 |
| 20260503203529 | 69 | 318 | 7.0 | 13.0 | 0.00 | 0.00 | 0.00 | 29 | 1005.3 |
| 20260503203026 | 68 | 335 | 5.0 | 9.0 | 0.00 | 0.00 | 0.00 | 30 | 1005.5 |
| 20260503202524 | 68 | 253 | 16.0 | 19.0 | 0.00 | 0.00 | 0.00 | 31 | 1005.4 |
| 20260503202022 | 68 | 251 | 4.0 | 11.0 | 0.00 | 0.00 | 0.00 | 31 | 1005.5 |
| 20260503201520 | 68 | 285 | 9.0 | 13.0 | 0.00 | 0.00 | 0.00 | 31 | 1005.5 |
| 20260503201017 | 68 | 280 | 4.0 | 13.0 | 0.00 | 0.00 | 0.00 | 31 | 1005.6 |
| 20260503200513 | 67 | 317 | 6.0 | 11.0 | 0.00 | 0.00 | 0.00 | 30 | 1005.8 |
| 20260503200010 | 67 | 283 | 8.0 | 9.0 | 0.00 | 0.00 | 0.00 | 30 | 1005.9 |
| 20260503195507 | 67 | 240 | 7.0 | 14.0 | 0.00 | 0.00 | 0.00 | 33 | 1005.9 |
| 20260503195003 | 67 | 273 | 6.0 | 16.0 | 0.00 | 0.00 | 0.00 | 32 | 1006.0 |
| 20260503194501 | 67 | 269 | 6.0 | 9.0 | 0.00 | 0.00 | 0.00 | 32 | 1006.3 |
| 20260503193955 | 67 | 311 | 7.0 | 12.0 | 0.00 | 0.00 | 0.00 | 31 | 1006.3 |
| 20260503193451 | 67 | 252 | 4.0 | 9.0 | 0.00 | 0.00 | 0.00 | 33 | 1006.4 |
| 20260503192947 | 67 | 307 | 7.0 | 8.0 | 0.00 | 0.00 | 0.00 | 31 | 1006.4 |
| 20260503192443 | 66 | 237 | 11.0 | 16.0 | 0.00 | 0.00 | 0.00 | 33 | 1006.5 |
| 20260503191939 | 66 | 306 | 3.0 | 7.0 | 0.00 | 0.00 | 0.00 | 33 | 1006.6 |
| 20260503191437 | 66 | 324 | 3.0 | 13.0 | 0.00 | 0.00 | 0.00 | 33 | 1006.7 |
| 20260503190933 | 65 | 351 | 3.0 | 11.0 | 0.00 | 0.00 | 0.00 | 33 | 1006.9 |
| 20260503190431 | 66 | 241 | 7.0 | 8.0 | 0.00 | 0.00 | 0.00 | 32 | 1006.7 |
| 20260503185927 | 66 | 288 | 6.0 | 16.0 | 0.00 | 0.00 | 0.00 | 32 | 1007.1 |
| 20260503185424 | 66 | 285 | 5.0 | 6.0 | 0.00 | 0.00 | 0.00 | 36 | 1007.4 |
| 20260503184923 | 64 | 297 | 5.0 | 14.0 | 0.00 | 0.00 | 0.00 | 34 | 1007.4 |
| 20260503184420 | 64 | 271 | 6.0 | 11.0 | 0.00 | 0.00 | 0.00 | 34 | 1007.4 |
| 20260503183916 | 65 | 289 | 7.0 | 14.0 | 0.00 | 0.00 | 0.00 | 35 | 1008.1 |
| 20260503183413 | 66 | 13 | 4.0 | 5.0 | 0.00 | 0.00 | 0.00 | 33 | 1008.1 |
| 20260503182910 | 65 | 326 | 1.0 | 9.0 | 0.00 | 0.00 | 0.00 | 36 | 1008.1 |
| 20260503182409 | 64 | 240 | 2.0 | 9.0 | 0.00 | 0.00 | 0.00 | 36 | 1008.1 |
| 20260503181906 | 64 | 288 | 6.0 | 10.0 | 0.00 | 0.00 | 0.00 | 34 | 1008.1 |
| 20260503181403 | 64 | 269 | 9.0 | 14.0 | 0.00 | 0.00 | 0.00 | 37 | 1008.1 |
| 20260503180859 | 63 | 267 | 9.0 | 11.0 | 0.00 | 0.00 | 0.00 | 36 | 1008.1 |
| 20260503180357 | 63 | 24 | 7.0 | 9.0 | 0.00 | 0.00 | 0.00 | 35 | 1008.0 |
| 20260503175853 | 63 | 298 | 6.0 | 11.0 | 0.00 | 0.00 | 0.00 | 37 | 1008.0 |
| 20260503175351 | 63 | 267 | 9.0 | 11.0 | 0.00 | 0.00 | 0.00 | 35 | 1008.3 |
| 20260503174847 | 63 | 244 | 3.0 | 7.0 | 0.00 | 0.00 | 0.00 | 35 | 1008.3 |
| 20260503174345 | 62 | 240 | 2.0 | 12.0 | 0.00 | 0.00 | 0.00 | 35 | 1008.6 |
| 20260503173845 | 62 | 20 | 11.0 | 12.0 | 0.00 | 0.00 | 0.00 | 35 | 1008.6 |
| 20260503173342 | 62 | 287 | 6.0 | 11.0 | 0.00 | 0.00 | 0.00 | 35 | 1008.8 |
| 20260503172838 | 62 | 296 | 8.0 | 15.0 | 0.00 | 0.00 | 0.00 | 36 | 1008.7 |
| 20260503172336 | 61 | 348 | 5.0 | 14.0 | 0.00 | 0.00 | 0.00 | 38 | 1009.0 |
| 20260503171832 | 61 | 245 | 6.0 | 14.0 | 0.00 | 0.00 | 0.00 | 37 | 1008.9 |
| 20260503171329 | 62 | 268 | 9.0 | 15.0 | 0.00 | 0.00 | 0.00 | 36 | 1008.9 |
| 20260503170826 | 62 | 352 | 4.0 | 17.0 | 0.00 | 0.00 | 0.00 | 38 | 1009.1 |
| 20260503170323 | 62 | 308 | 5.0 | 10.0 | 0.00 | 0.00 | 0.00 | 36 | 1008.9 |
| 20260503150715 | 59 | 0 | 5.0 | 8.0 | 0.00 | 0.00 | 0.00 | 36 | 1009.2 |
| 20260503150211 | 58 | 54 | 2.0 | 8.0 | 0.00 | 0.00 | 0.00 | 35 | 1009.1 |
| 20260503140136 | 55 | 32 | 5.0 | 8.0 | 0.00 | 0.00 | 0.00 | 51 | 1009.1 |
| 20260503131105 | 50 | 32 | 3.0 | 4.0 | 0.00 | 0.00 | 0.00 | 64 | 1008.9 |
| 20260503130603 | 49 | 24 | 2.0 | 7.0 | 0.00 | 0.00 | 0.00 | 65 | 1009.0 |
| 20260503110453 | 44 | 339 | 4.0 | 6.0 | 0.00 | 0.00 | 0.00 | 80 | 1007.5 |
| 20260503090338 | 45 | 8 | 2.0 | 4.0 | 0.00 | 0.00 | 0.00 | 75 | 1006.9 |
| 20260503080537 | 45 | 359 | 1.0 | 3.0 | 0.00 | 0.00 | 0.00 | 72 | 1006.3 |
| 20260503072512 | 46 | 327 | 2.0 | 5.0 | 0.00 | 0.00 | 0.00 | 70 | 1006.3 |
| 20260503072008 | 46 | 355 | 2.0 | 3.0 | 0.00 | 0.00 | 0.00 | 71 | 1006.2 |
| 20260503071505 | 47 | 278 | 2.0 | 3.0 | 0.00 | 0.00 | 0.00 | 69 | 1006.2 |
| 20260503071001 | 47 | 299 | 0.0 | 2.0 | 0.00 | 0.00 | 0.00 | 69 | 1005.9 |
| 20260503070458 | 47 | 355 | 1.0 | 2.0 | 0.00 | 0.00 | 0.00 | 68 | 1005.9 |